{"data":{"norad_id":59303,"intl_designator":"2024-056H","name":"STARLINK-31504","alt_names":[],"object_type":"PAYLOAD","status":"ACTIVE","operator":null,"country":"US","launch_date":"2024-03-24","launch_site_code":"AFETR","launch_vehicle":null,"mission":null,"orbit_class":"UNKNOWN","rcs_meters":null,"size_class":null,"mass_kg":null,"dimensions":null,"purposes":["comms"],"wikipedia_slug":null,"has_3d_model":false,"image_url":null,"decayed_at":null,"tle_current":{"epoch":"2026-05-24T17:42:52.089696Z","epoch_age_seconds":93829,"freshness":"FRESH","line1":"1 59303U 24056H   26144.73810289 -.00000335  00000+0 -26640-5 0  9997","line2":"2 59303  42.9997 161.3402 0001186 276.4172  83.6545 15.27576508122781","mean_motion":15.27576508,"eccentricity":0.0001186,"inclination_deg":42.9997,"raan_deg":161.3402,"arg_perigee_deg":276.4172,"mean_anomaly_deg":83.6545,"bstar":-2.664e-6,"rev_number":12278,"period_min":94.266964204977,"perigee_km":482.2458144527,"apogee_km":483.87329027492,"semimajor_km":6861.1965523638,"source":"CELESTRAK","updated_at":"2026-05-25T13:38:18.898920Z"}}}